Time,TemperatureF,DewpointF,PressureIn,WindDirection,WindDirectionDegrees,WindSpeedMPH,WindSpeedGustMPH,Humidity,HourlyPrecipIn,Conditions,Clouds,dailyrainin,SoftwareType,DateUTC
2013-05-06 00:12:00,52.0,47.0,29.98,NW,320,11.0,20.0,83,-99.99,,,-99.99,,2013-05-06 05:12:00,
2013-05-06 00:22:00,52.0,47.0,29.98,NW,320,11.0,20.0,83,-99.99,,,-99.99,,2013-05-06 05:22:00,
2013-05-06 00:32:00,52.0,47.0,29.98,WNW,295,10.0,18.0,83,-99.99,,,-99.99,,2013-05-06 05:32:00,
2013-05-06 00:42:00,52.0,47.0,29.98,WNW,295,9.0,16.0,83,-99.99,,,-99.99,,2013-05-06 05:42:00,
2013-05-06 00:52:00,52.0,47.0,29.98,WNW,295,9.0,16.0,83,-99.99,,,-99.99,,2013-05-06 05:52:00,
2013-05-06 01:02:00,52.0,47.0,29.98,NW,315,8.0,13.0,84,-99.99,,,-99.99,,2013-05-06 06:02:00,
2013-05-06 01:12:00,51.0,47.0,29.98,NW,310,9.0,15.0,85,-99.99,,,-99.99,,2013-05-06 06:12:00,
2013-05-06 01:21:00,51.0,47.0,29.98,NW,310,9.0,15.0,85,-99.99,,,-99.99,,2013-05-06 06:21:00,
2013-05-06 01:32:00,51.0,47.0,29.99,NW,320,8.0,14.0,85,-99.99,,,-99.99,,2013-05-06 06:32:00,
2013-05-06 01:42:00,51.0,47.0,29.99,NW,320,12.0,16.0,85,-99.99,,,-99.99,,2013-05-06 06:42:00,
2013-05-06 01:52:00,51.0,47.0,29.99,NW,320,12.0,16.0,85,-99.99,,,-99.99,,2013-05-06 06:52:00,
2013-05-06 02:00:00,51.0,47.0,29.98,NW,310,12.0,18.0,87,-99.99,,,-99.99,,2013-05-06 07:00:00,
2013-05-06 02:01:00,51.0,47.0,29.98,NW,310,9.0,15.0,86,-99.99,,,-99.99,,2013-05-06 07:01:00,
2013-05-06 02:11:00,51.0,47.0,29.98,NNW,335,13.0,19.0,86,-99.99,,,-99.99,,2013-05-06 07:11:00,
2013-05-06 02:22:00,51.0,47.0,29.98,NNW,335,13.0,19.0,86,-99.99,,,-99.99,,2013-05-06 07:22:00,
2013-05-06 02:31:00,51.0,47.0,29.98,NNW,335,15.0,18.0,86,-99.99,,,-99.99,,2013-05-06 07:31:00,
2013-05-06 02:42:00,51.0,47.0,29.98,NW,310,12.0,18.0,87,-99.99,,,-99.99,,2013-05-06 07:42:00,
2013-05-06 02:52:00,51.0,47.0,29.98,NW,310,12.0,18.0,87,-99.99,,,-99.99,,2013-05-06 07:52:00,
2013-05-06 03:12:00,51.0,47.0,29.97,NNW,330,11.0,18.0,87,-99.99,,,-99.99,,2013-05-06 08:12:00,
2013-05-06 03:22:00,51.0,47.0,29.97,NNW,330,11.0,18.0,87,-99.99,,,-99.99,,2013-05-06 08:22:00,
2013-05-06 03:32:00,51.0,47.0,29.97,NW,305,8.0,15.0,88,-99.99,,,-99.99,,2013-05-06 08:32:00,
2013-05-06 03:42:00,51.0,47.0,29.96,WNW,300,7.0,15.0,88,-99.99,,,-99.99,,2013-05-06 08:42:00,
2013-05-06 03:52:00,51.0,47.0,29.96,WNW,300,7.0,15.0,88,-99.99,,,-99.99,,2013-05-06 08:52:00,
2013-05-06 04:00:00,51.0,48.0,29.96,NNW,330,11.0,15.0,89,-99.99,,,-99.99,,2013-05-06 09:00:00,
2013-05-06 04:01:00,51.0,47.0,29.96,WNW,285,10.0,16.0,88,-99.99,,,-99.99,,2013-05-06 09:01:00,
2013-05-06 04:11:00,51.0,47.0,29.95,WNW,300,11.0,15.0,88,-99.99,,,-99.99,,2013-05-06 09:11:00,
2013-05-06 04:22:00,51.0,47.0,29.95,WNW,300,11.0,15.0,88,-99.99,,,-99.99,,2013-05-06 09:22:00,
2013-05-06 04:33:00,51.0,47.0,29.95,NW,310,11.0,13.0,88,-99.99,,,-99.99,,2013-05-06 09:33:00,
2013-05-06 04:42:00,51.0,48.0,29.96,NNW,330,11.0,15.0,89,-99.99,,,-99.99,,2013-05-06 09:42:00,
2013-05-06 04:53:00,51.0,48.0,29.96,NNW,330,11.0,15.0,89,-99.99,,,-99.99,,2013-05-06 09:53:00,
2013-05-06 05:12:00,51.0,48.0,29.96,NW,325,14.0,19.0,89,-99.99,,,-99.99,,2013-05-06 10:12:00,
2013-05-06 05:22:00,51.0,48.0,29.96,NW,325,14.0,19.0,89,-99.99,,,-99.99,,2013-05-06 10:22:00,
2013-05-06 05:33:00,51.0,48.0,29.96,NW,325,8.0,14.0,89,-99.99,,,-99.99,,2013-05-06 10:33:00,
2013-05-06 05:42:00,51.0,48.0,29.96,NW,325,10.0,19.0,90,-99.99,,,-99.99,,2013-05-06 10:42:00,
2013-05-06 05:50:00,51.0,48.0,29.98,NW,320,11.0,16.0,90,-99.99,,,-99.99,,2013-05-06 10:50:00,
2013-05-06 05:52:00,51.0,48.0,29.96,NW,325,10.0,19.0,90,-99.99,,,-99.99,,2013-05-06 10:52:00,
2013-05-06 06:02:00,51.0,48.0,29.97,NW,315,10.0,15.0,90,-99.99,,,-99.99,,2013-05-06 11:02:00,
2013-05-06 06:12:00,51.0,48.0,29.97,NW,325,10.0,18.0,90,-99.99,,,-99.99,,2013-05-06 11:12:00,
2013-05-06 06:22:00,51.0,48.0,29.97,NW,325,10.0,18.0,90,-99.99,,,-99.99,,2013-05-06 11:22:00,
2013-05-06 06:31:00,51.0,48.0,29.98,NW,320,11.0,16.0,90,-99.99,,,-99.99,,2013-05-06 11:31:00,
2013-05-06 06:42:00,51.0,48.0,29.98,NW,320,11.0,16.0,90,-99.99,,,-99.99,,2013-05-06 11:42:00,
2013-05-06 08:42:00,51.0,48.0,30.01,NW,320,14.0,19.0,91,-99.99,,,-99.99,,2013-05-06 13:42:00,
2013-05-06 08:52:00,51.0,48.0,30.01,NW,320,14.0,19.0,91,-99.99,,,-99.99,,2013-05-06 13:52:00,
2013-05-06 09:01:00,51.0,48.0,30.02,NW,325,12.0,17.0,91,-99.99,,,-99.99,,2013-05-06 14:01:00,
2013-05-06 09:11:00,51.0,48.0,30.02,NNW,340,12.0,19.0,91,-99.99,,,-99.99,,2013-05-06 14:11:00,
2013-05-06 09:21:00,51.0,48.0,30.02,NNW,340,12.0,19.0,91,-99.99,,,-99.99,,2013-05-06 14:21:00,
2013-05-06 09:32:00,51.0,49.0,30.02,NNW,345,15.0,19.0,91,-99.99,,,-99.99,,2013-05-06 14:32:00,
2013-05-06 09:42:00,51.0,49.0,30.02,NW,325,15.0,21.0,91,-99.99,,,-99.99,,2013-05-06 14:42:00,
2013-05-06 09:51:00,51.0,49.0,30.02,NW,325,15.0,21.0,91,-99.99,,,-99.99,,2013-05-06 14:51:00,
2013-05-06 10:01:00,51.0,49.0,30.03,NNW,335,10.0,15.0,91,-99.99,,,-99.99,,2013-05-06 15:01:00,
2013-05-06 10:11:00,52.0,49.0,30.04,NNW,335,11.0,17.0,91,-99.99,,,-99.99,,2013-05-06 15:11:00,
2013-05-06 10:21:00,52.0,49.0,30.04,NNW,335,11.0,17.0,91,-99.99,,,-99.99,,2013-05-06 15:21:00,
2013-05-06 10:33:00,52.0,49.0,30.04,NNW,340,11.0,15.0,91,-99.99,,,-99.99,,2013-05-06 15:33:00,
2013-05-06 10:42:00,52.0,49.0,30.04,NW,325,12.0,19.0,91,-99.99,,,-99.99,,2013-05-06 15:42:00,
2013-05-06 10:50:00,54.0,51.0,30.04,NNW,335,10.0,15.0,91,-99.99,,,-99.99,,2013-05-06 15:50:00,
2013-05-06 10:53:00,52.0,49.0,30.04,NW,325,12.0,19.0,91,-99.99,,,-99.99,,2013-05-06 15:53:00,
2013-05-06 11:03:00,53.0,50.0,30.04,NNW,345,7.0,15.0,91,-99.99,,,-99.99,,2013-05-06 16:03:00,
2013-05-06 11:13:00,53.0,50.0,30.04,NW,315,13.0,16.0,91,-99.99,,,-99.99,,2013-05-06 16:13:00,
2013-05-06 11:23:00,53.0,50.0,30.04,NW,315,13.0,16.0,91,-99.99,,,-99.99,,2013-05-06 16:23:00,
2013-05-06 11:30:00,55.0,51.0,30.04,NNW,335,8.0,15.0,86,-99.99,,,-99.99,,2013-05-06 16:30:00,
2013-05-06 11:32:00,54.0,51.0,30.04,NNW,335,10.0,15.0,91,-99.99,,,-99.99,,2013-05-06 16:32:00,
2013-05-06 11:42:00,54.0,51.0,30.04,NNW,335,10.0,15.0,91,-99.99,,,-99.99,,2013-05-06 16:42:00,
2013-05-06 12:03:00,54.0,51.0,30.04,North,5,8.0,15.0,87,-99.99,,,-99.99,,2013-05-06 17:03:00,
2013-05-06 12:12:00,54.0,51.0,30.04,North,5,8.0,15.0,87,-99.99,,,-99.99,,2013-05-06 17:12:00,
2013-05-06 12:23:00,55.0,51.0,30.04,NNW,335,8.0,15.0,86,-99.99,,,-99.99,,2013-05-06 17:23:00,
2013-05-06 12:30:00,58.0,50.0,30.04,NNW,335,11.0,16.0,76,-99.99,,,-99.99,,2013-05-06 17:30:00,
2013-05-06 12:42:00,58.0,51.0,30.03,North,355,9.0,15.0,78,-99.99,,,-99.99,,2013-05-06 17:42:00,
2013-05-06 12:52:00,58.0,51.0,30.03,North,355,9.0,15.0,78,-99.99,,,-99.99,,2013-05-06 17:52:00,
2013-05-06 13:01:00,58.0,51.0,30.04,NW,325,11.0,15.0,76,-99.99,,,-99.99,,2013-05-06 18:01:00,
2013-05-06 13:12:00,58.0,51.0,30.04,NW,325,11.0,15.0,76,-99.99,,,-99.99,,2013-05-06 18:12:00,
2013-05-06 13:21:00,58.0,50.0,30.04,NNW,335,11.0,16.0,76,-99.99,,,-99.99,,2013-05-06 18:21:00,
2013-05-06 13:43:00,58.0,50.0,30.03,WNW,300,12.0,17.0,74,-99.99,,,-99.99,,2013-05-06 18:43:00,
2013-05-06 13:52:00,58.0,50.0,30.03,WNW,300,12.0,17.0,74,-99.99,,,-99.99,,2013-05-06 18:52:00,
2013-05-06 14:01:00,60.0,52.0,30.02,NW,325,8.0,16.0,75,-99.99,,,-99.99,,2013-05-06 19:01:00,
2013-05-06 14:11:00,60.0,50.0,30.02,NW,325,12.0,16.0,71,-99.99,,,-99.99,,2013-05-06 19:11:00,
2013-05-06 14:22:00,60.0,50.0,30.02,NW,325,12.0,16.0,71,-99.99,,,-99.99,,2013-05-06 19:22:00,
2013-05-06 14:32:00,60.0,50.0,30.02,NW,320,10.0,15.0,68,-99.99,,,-99.99,,2013-05-06 19:32:00,
2013-05-06 14:41:00,61.0,50.0,30.02,NW,315,8.0,15.0,67,-99.99,,,-99.99,,2013-05-06 19:41:00,
2013-05-06 14:52:00,61.0,50.0,30.02,NW,315,8.0,15.0,67,-99.99,,,-99.99,,2013-05-06 19:52:00,
2013-05-06 15:00:00,63.0,51.0,30.01,WNW,300,10.0,14.0,65,-99.99,,,-99.99,,2013-05-06 20:00:00,
2013-05-06 15:02:00,61.0,50.0,30.02,NW,310,12.0,16.0,67,-99.99,,,-99.99,,2013-05-06 20:02:00,
2013-05-06 15:11:00,62.0,50.0,30.01,WNW,300,11.0,17.0,66,-99.99,,,-99.99,,2013-05-06 20:11:00,
2013-05-06 15:21:00,62.0,50.0,30.01,WNW,300,11.0,17.0,66,-99.99,,,-99.99,,2013-05-06 20:21:00,
2013-05-06 15:32:00,63.0,52.0,30.01,NW,315,5.0,16.0,65,-99.99,,,-99.99,,2013-05-06 20:32:00,
2013-05-06 15:42:00,63.0,51.0,30.01,WNW,300,10.0,14.0,65,-99.99,,,-99.99,,2013-05-06 20:42:00,
2013-05-06 15:52:00,63.0,51.0,30.01,WNW,300,10.0,14.0,65,-99.99,,,-99.99,,2013-05-06 20:52:00,
2013-05-06 16:00:00,63.0,50.0,29.99,NW,320,10.0,18.0,62,-99.99,,,-99.99,,2013-05-06 21:00:00,
2013-05-06 16:11:00,64.0,52.0,30.00,NW,310,9.0,19.0,65,-99.99,,,-99.99,,2013-05-06 21:11:00,
2013-05-06 16:21:00,64.0,52.0,30.00,NW,310,9.0,19.0,65,-99.99,,,-99.99,,2013-05-06 21:21:00,
2013-05-06 16:32:00,63.0,50.0,29.99,NW,315,11.0,21.0,62,-99.99,,,-99.99,,2013-05-06 21:32:00,
2013-05-06 16:43:00,63.0,50.0,29.99,NW,320,10.0,18.0,62,-99.99,,,-99.99,,2013-05-06 21:43:00,
2013-05-06 16:53:00,63.0,50.0,29.99,NW,320,10.0,18.0,62,-99.99,,,-99.99,,2013-05-06 21:53:00,
2013-05-06 17:00:00,66.0,50.0,29.98,NNW,335,10.0,17.0,58,-99.99,,,-99.99,,2013-05-06 22:00:00,
2013-05-06 17:12:00,65.0,50.0,29.98,North,0,10.0,15.0,60,-99.99,,,-99.99,,2013-05-06 22:12:00,
2013-05-06 17:22:00,65.0,50.0,29.98,North,0,10.0,15.0,60,-99.99,,,-99.99,,2013-05-06 22:22:00,
2013-05-06 17:33:00,66.0,51.0,29.98,NNW,340,9.0,17.0,59,-99.99,,,-99.99,,2013-05-06 22:33:00,
2013-05-06 17:45:00,66.0,50.0,29.98,NNW,335,10.0,17.0,58,-99.99,,,-99.99,,2013-05-06 22:45:00,
2013-05-06 17:52:00,66.0,50.0,29.98,NNW,335,10.0,17.0,58,-99.99,,,-99.99,,2013-05-06 22:52:00,
2013-05-06 18:12:00,65.0,50.0,29.98,NW,310,9.0,17.0,57,-99.99,,,-99.99,,2013-05-06 23:12:00,
2013-05-06 18:20:00,65.0,50.0,29.97,North,355,9.0,14.0,57,-99.99,,,-99.99,,2013-05-06 23:20:00,
2013-05-06 18:22:00,65.0,50.0,29.98,NW,310,9.0,17.0,57,-99.99,,,-99.99,,2013-05-06 23:22:00,
2013-05-06 18:32:00,66.0,50.0,29.98,NW,320,9.0,16.0,58,-99.99,,,-99.99,,2013-05-06 23:32:00,
2013-05-06 18:42:00,65.0,50.0,29.98,NW,320,11.0,14.0,57,-99.99,,,-99.99,,2013-05-06 23:42:00,
2013-05-06 18:52:00,65.0,50.0,29.98,NW,320,11.0,14.0,57,-99.99,,,-99.99,,2013-05-06 23:52:00,
2013-05-06 19:00:00,65.0,51.0,29.98,NW,325,6.0,11.0,61,-99.99,,,-99.99,,2013-05-07 00:00:00,
2013-05-06 19:01:00,65.0,50.0,29.97,North,355,9.0,14.0,57,-99.99,,,-99.99,,2013-05-07 00:01:00,
2013-05-06 19:11:00,65.0,50.0,29.97,North,355,9.0,14.0,57,-99.99,,,-99.99,,2013-05-07 00:11:00,
2013-05-06 19:32:00,65.0,51.0,29.98,NNW,330,10.0,14.0,60,-99.99,,,-99.99,,2013-05-07 00:32:00,
2013-05-06 19:42:00,65.0,51.0,29.98,NW,325,6.0,11.0,61,-99.99,,,-99.99,,2013-05-07 00:42:00,
2013-05-06 19:51:00,65.0,51.0,29.98,NW,325,6.0,11.0,61,-99.99,,,-99.99,,2013-05-07 00:51:00,
2013-05-06 20:00:00,63.0,51.0,29.98,West,280,5.0,7.0,66,-99.99,,,-99.99,,2013-05-07 01:00:00,
2013-05-06 20:11:00,64.0,51.0,29.98,NW,310,5.0,11.0,63,-99.99,,,-99.99,,2013-05-07 01:11:00,
2013-05-06 20:21:00,64.0,51.0,29.98,NW,310,5.0,11.0,63,-99.99,,,-99.99,,2013-05-07 01:21:00,
2013-05-06 20:32:00,63.0,51.0,29.98,NW,310,5.0,8.0,65,-99.99,,,-99.99,,2013-05-07 01:32:00,
2013-05-06 20:42:00,63.0,51.0,29.98,West,280,5.0,7.0,66,-99.99,,,-99.99,,2013-05-07 01:42:00,
2013-05-06 20:52:00,63.0,51.0,29.98,West,280,5.0,7.0,66,-99.99,,,-99.99,,2013-05-07 01:52:00,
2013-05-06 21:11:00,62.0,51.0,30.00,WNW,290,4.0,6.0,69,-99.99,,,-99.99,,2013-05-07 02:11:00,
2013-05-06 21:21:00,62.0,51.0,30.00,WNW,290,4.0,6.0,69,-99.99,,,-99.99,,2013-05-07 02:21:00,
2013-05-06 21:32:00,60.0,51.0,30.00,West,280,5.0,7.0,72,-99.99,,,-99.99,,2013-05-07 02:32:00,
2013-05-06 21:42:00,60.0,51.0,30.00,WNW,295,4.0,7.0,72,-99.99,,,-99.99,,2013-05-07 02:42:00,
2013-05-06 21:52:00,60.0,51.0,30.00,WNW,295,4.0,7.0,72,-99.99,,,-99.99,,2013-05-07 02:52:00,
2013-05-06 22:01:00,60.0,51.0,30.02,WNW,295,5.0,8.0,73,-99.99,,,-99.99,,2013-05-07 03:01:00,
2013-05-06 22:11:00,60.0,51.0,30.02,WNW,290,3.0,6.0,74,-99.99,,,-99.99,,2013-05-07 03:11:00,
2013-05-06 22:22:00,60.0,51.0,30.02,WNW,290,3.0,6.0,74,-99.99,,,-99.99,,2013-05-07 03:22:00,
2013-05-06 22:32:00,59.0,51.0,30.03,West,280,5.0,7.0,75,-99.99,,,-99.99,,2013-05-07 03:32:00,
2013-05-06 22:42:00,59.0,51.0,30.04,WNW,285,5.0,9.0,75,-99.99,,,-99.99,,2013-05-07 03:42:00,
2013-05-06 22:53:00,59.0,51.0,30.04,WNW,285,5.0,9.0,75,-99.99,,,-99.99,,2013-05-07 03:53:00,
2013-05-06 23:03:00,58.0,50.0,30.04,West,280,4.0,7.0,76,-99.99,,,-99.99,,2013-05-07 04:03:00,
2013-05-06 23:12:00,58.0,50.0,30.04,West,275,4.0,7.0,77,-99.99,,,-99.99,,2013-05-07 04:12:00,
2013-05-06 23:23:00,58.0,50.0,30.04,West,275,4.0,7.0,77,-99.99,,,-99.99,,2013-05-07 04:23:00,
2013-05-06 23:33:00,57.0,51.0,30.04,WNW,300,3.0,5.0,79,-99.99,,,-99.99,,2013-05-07 04:33:00,
2013-05-06 23:42:00,57.0,51.0,30.04,WNW,300,4.0,5.0,80,-99.99,,,-99.99,,2013-05-07 04:42:00,
2013-05-06 23:53:00,57.0,51.0,30.04,WNW,300,4.0,5.0,80,-99.99,,,-99.99,,2013-05-07 04:53:00,